Flag for Brazil Weather past 2 weeks in Recife, Pernambuco, Brazil

Now
77 °F

Light rain. Broken clouds.


Feels Like: 78 °F
Forecast: 74 / 83 °F
Wind: 5 mph from Southwest

Location: Recife Aeroporto

Current Time: May 28, 2015 at 8:05:59 AM

Latest Report: May 28, 2015 at 7:00 AM


Visibility: 3 mi

Pressure: 29.95 "Hg

Humidity: 89%

Dew point: 73 °F

Location of RecifeLocation

Historic Weather in Recife — Graph

°F

Recife temperature yesterday

Maximum temperature yesterday: 86 °F (at 11:00 AM)
Minimum temperature yesterday: 77 °F (at 11:00 PM)
Average temperature yesterday: 82 °F

Past Weeks' High & Low Weather Summary

 TemperatureHumidityPressure
High88 °F (May 13, 1:00 PM)100% (May 19, 3:00 AM)30.04 "Hg (May 19, 3:00 AM)
Low73 °F (May 17, 5:00 AM)62% (May 13, 9:00 AM)29.89 "Hg (May 13, 2:00 PM)
Average81 °F79%29.95 "Hg
* Reported May 13 7:00 AM — May 28 7:00 AM, Recife, Weather by CustomWeather, © 2015

Note: Actual official high and low records may vary slightly from our data, if they occured in-between our weather recording intervals... More about our weather records

Advertising

Recife weather history for previous 24 hours

 ConditionsComfort  
Time TempWeatherWind HumidityBarometerVisibility
7:00 AM
Thu, May 28
77 °FLight rain. Broken clouds.5 mph89%29.95 "Hg3 mi
6:00 AM77 °FBroken clouds.5 mph89%29.95 "HgN/A
5:00 AM77 °FPassing clouds.3 mph89%29.92 "HgN/A
4:00 AM79 °FPassing clouds.7 mph89%29.92 "HgN/A
3:00 AM75 °FPassing clouds.2 mph94%29.92 "HgN/A
2:00 AM77 °FPassing clouds.3 mph94%29.92 "HgN/A
1:00 AM77 °FPassing clouds.2 mph94%29.95 "HgN/A
12:00 AM75 °FLight rain. Passing clouds.3 mph94%29.95 "Hg6 mi
11:25 PM
Wed, May 27
77 °FPassing clouds.5 mph89%29.98 "Hg3 mi
11:00 PM77 °FScattered showers. Passing clouds.6 mph89%29.95 "HgN/A
10:00 PM79 °FPassing clouds.5 mph84%29.98 "HgN/A
9:00 PM81 °FPassing clouds.9 mph74%29.98 "HgN/A
8:00 PM81 °FPassing clouds.9 mph74%29.95 "HgN/A
7:00 PM81 °FPassing clouds.9 mph79%29.95 "HgN/A
6:00 PM81 °FPassing clouds.9 mph74%29.92 "HgN/A
5:00 PM82 °FPassing clouds.8 mph70%29.92 "HgN/A
4:00 PM84 °FPassing clouds.9 mph66%29.92 "HgN/A
3:00 PM84 °FPassing clouds.9 mph70%29.89 "HgN/A
2:00 PM86 °FScattered clouds.8 mph66%29.89 "HgN/A
1:00 PM86 °FPassing clouds.9 mph66%29.92 "HgN/A
12:00 PM86 °FPassing clouds.9 mph66%29.95 "HgN/A
11:00 AM86 °FPassing clouds.8 mph66%29.95 "HgN/A
10:00 AM84 °FScattered clouds.12 mph70%29.98 "HgN/A
9:00 AM84 °FScattered clouds.12 mph70%29.98 "HgN/A
8:00 AM84 °FScattered clouds.12 mph70%29.95 "HgN/A
Weather by CustomWeather, © 2015

See weather overviewHow to use our weather pages